GW3435 Weather Reports


time (UTC)temp
F
wind
direction
speed
knots
gust
knots
rain 1hr
in
rain 24hr
in
rain mn
in
humidity
%
barometer
mb
20260906065020 79 315 3.5 7.0 0.00 0.00 0.00 53 1015.4
20260906064034 78 309 3.5 7.8 0.00 0.00 0.00 56 1015.4
20260906063111 77 307 3.5 7.8 0.00 0.00 0.00 56 1015.3
20260906062026 76 290 3.5 7.0 0.00 0.00 0.00 57 1015.3
20260906061022 75 284 2.6 7.0 0.00 0.00 0.00 60 1015.3
20260906060017 75 291 2.6 8.7 0.00 0.00 0.00 59 1015.1
20260906055032 76 246 1.7 7.0 0.00 0.00 0.00 58 1015.1
20260906054048 76 309 0.9 3.5 0.00 0.00 0.00 57 1015.0
20260906053024 75 240 0.9 3.5 0.00 0.00 0.00 60 1015.0
20260906052019 75 280 1.7 6.1 0.00 0.00 0.00 62 1014.9
20260906051035 75 12 0.9 2.6 0.00 0.00 0.00 60 1014.8
20260906050031 75 45 0.9 1.7 0.00 0.00 0.00 61 1014.8
20260906045027 74 92 0.0 0.0 0.00 0.00 0.00 61 1014.9
20260906044043 73 190 0.0 0.0 0.00 0.00 0.00 62 1014.9
20260906043019 73 104 0.0 0.0 0.00 0.00 0.00 63 1014.6
20260906042034 73 97 0.9 2.6 0.00 0.00 0.00 63 1014.5
20260906041030 73 89 1.7 5.2 0.00 0.00 0.00 63 1014.3
20260906040046 72 74 1.7 2.6 0.00 0.00 0.00 62 1014.2
20260906035021 71 102 0.9 2.6 0.00 0.00 0.00 64 1014.0
20260906034017 71 93 0.9 2.6 0.00 0.00 0.00 62 1013.9
20260906033033 72 242 0.9 2.6 0.00 0.00 0.00 61 1013.8
20260906032029 72 78 0.9 2.6 0.00 0.00 0.00 60 1013.7
20260906031105 71 208 0.9 1.7 0.00 0.00 0.00 60 1013.8
20260906030020 71 239 0.0 0.0 0.00 0.00 0.00 60 1013.8
20260906025016 70 101 0.0 1.7 0.00 0.00 0.00 60 1013.8
20260906024032 71 135 0.0 0.0 0.00 0.00 0.00 60 1013.8
20260906023028 72 216 0.9 2.6 0.00 0.00 0.00 60 1013.8
20260906022024 73 258 1.7 5.2 0.00 0.00 0.00 59 1013.9
20260906021019 74 279 2.6 7.0 0.00 0.00 0.00 59 1013.8
20260906020035 73 291 3.5 9.6 0.00 0.00 0.00 59 1013.7
20260906015030 72 136 0.0 0.0 0.00 0.00 0.00 62 1013.8
20260906014026 74 281 4.3 8.7 0.00 0.00 0.00 60 1013.8
20260906013022 74 276 2.6 7.0 0.00 0.00 0.00 63 1013.9
20260906012017 73 298 4.3 7.8 0.00 0.00 0.00 64 1014.0
20260906011033 73 262 1.7 7.0 0.00 0.00 0.00 64 1014.0
20260906010028 72 248 0.0 0.9 0.00 0.00 0.00 63 1013.8
20260906005022 72 239 0.0 1.7 0.00 0.00 0.00 63 1014.0
20260906004018 72 55 0.0 1.7 0.00 0.00 0.00 63 1013.9
20260906003032 73 214 0.0 0.0 0.00 0.00 0.00 62 1013.8
20260906002026 73 82 0.9 1.7 0.00 0.00 0.00 61 1013.9
20260906001021 74 201 0.0 0.9 0.00 0.00 0.00 60 1013.9
20260906000038 73 285 0.0 1.7 0.00 0.00 0.00 61 1013.9
20260905235033 73 91 0.0 0.9 0.00 0.00 0.00 61 1014.1
20260905234029 72 355 0.9 1.7 0.00 0.00 0.00 61 1014.0
20260905233024 73 146 0.0 0.0 0.00 0.00 0.00 61 1014.0
20260905232019 73 289 0.9 1.7 0.00 0.00 0.00 59 1014.1
20260905231035 73 255 0.0 1.7 0.00 0.00 0.00 61 1014.1
20260905230031 72 149 0.0 0.0 0.00 0.00 0.00 63 1014.1
20260905225026 73 210 0.0 0.0 0.00 0.00 0.00 62 1014.2
20260905224021 73 92 0.0 0.0 0.00 0.00 0.00 63 1014.1
20260905223036 72 305 0.9 1.7 0.00 0.00 0.00 63 1014.1
20260905222112 73 223 0.0 1.7 0.00 0.00 0.00 64 1014.0
20260905221027 73 84 0.0 1.7 0.00 0.00 0.00 64 1014.1
20260905220042 72 119 0.0 0.0 0.00 0.00 0.00 66 1014.2
20260905215017 72 171 0.0 0.0 0.00 0.00 0.00 66 1014.2
20260905214032 73 235 0.0 0.0 0.00 0.00 0.00 66 1014.2
20260905213028 73 138 0.0 0.0 0.00 0.00 0.00 68 1014.4
20260905212024 73 291 0.0 0.9 0.00 0.00 0.00 69 1014.3
20260905211020 72 225 0.0 0.9 0.00 0.00 0.00 71 1014.3
20260905210036 72 141 0.0 0.0 0.00 0.00 0.00 73 1014.5
20260905205032 71 143 0.0 0.0 0.00 0.00 0.00 75 1014.5
20260905204027 72 164 0.0 0.0 0.00 0.00 0.00 75 1014.5
20260905203043 72 276 0.0 1.7 0.00 0.00 0.00 74 1014.5
20260905202019 73 105 0.0 0.0 0.00 0.00 0.00 73 1014.6
20260905201034 72 155 0.0 0.0 0.00 0.00 0.00 75 1014.6
20260905200030 73 291 0.0 0.0 0.00 0.00 0.00 75 1014.5
20260905195025 73 284 0.0 1.7 0.00 0.00 0.00 73 1014.5
20260905194021 73 265 0.0 0.0 0.00 0.00 0.00 72 1014.5
20260905193017 74 265 0.0 0.0 0.00 0.00 0.00 75 1014.6
20260905192033 75 269 0.0 0.9 0.00 0.00 0.00 74 1014.7
20260905191028 74 182 0.0 0.0 0.00 0.00 0.00 73 1014.6
20260905190024 74 182 0.0 0.0 0.00 0.00 0.00 73 1014.6
20260905185020 74 182 0.0 0.0 0.00 0.00 0.00 73 1014.7
20260905184035 75 182 0.0 0.0 0.00 0.00 0.00 74 1014.4
20260905183031 76 182 0.0 0.0 0.00 0.00 0.00 72 1014.3
20260905182026 76 182 0.0 0.0 0.00 0.00 0.00 69 1014.4
20260905181022 76 181 0.0 0.0 0.00 0.00 0.00 69 1014.4
20260905180018 77 182 0.0 0.0 0.00 0.00 0.00 70 1014.4
20260905175054 77 183 0.0 0.0 0.00 0.00 0.00 70 1014.3
20260905174030 78 183 0.0 0.0 0.00 0.00 0.00 69 1014.3
20260905173025 79 183 0.0 0.0 0.00 0.00 0.00 68 1014.2
20260905172020 79 222 0.0 0.0 0.00 0.00 0.00 68 1014.1
20260905171037 80 229 0.0 0.0 0.00 0.00 0.00 67 1014.0
20260905170031 81 228 0.0 0.9 0.00 0.00 0.00 67 1014.0
20260905165027 83 288 0.0 1.7 0.00 0.00 0.00 66 1014.1
20260905164023 84 1 0.9 1.7 0.00 0.00 0.00 65 1013.9
20260905163018 85 328 0.0 2.6 0.00 0.00 0.00 64 1013.9
20260905162034 86 318 0.9 2.6 0.00 0.00 0.00 59 1013.9
20260905161029 87 317 0.9 2.6 0.00 0.00 0.00 52 1013.9
20260905160025 87 355 0.0 1.7 0.00 0.00 0.00 50 1013.9
20260905155021 88 14 1.7 2.6 0.00 0.00 0.00 48 1013.8
20260905154036 88 331 0.9 2.6 0.00 0.00 0.00 46 1013.7
20260905153052 88 356 0.9 2.6 0.00 0.00 0.00 47 1013.8
20260905152038 87 343 1.7 2.6 0.00 0.00 0.00 49 1013.7
20260905151525 91 8 1.7 5.2 0.00 0.00 0.00 44 1013.7
20260905150533 90 59 0.9 2.6 0.00 0.00 0.00 37 1013.6
20260905145556 89 20 1.7 2.6 0.00 0.00 0.00 42 1013.7
20260905144538 90 46 3.5 5.2 0.00 0.00 0.00 41 1013.6
20260905141023 89 35 1.7 3.5 0.00 0.00 0.00 40 1013.8
20260905140017 90 46 2.6 5.2 0.00 0.00 0.00 38 1013.9
20260905135032 90 24 3.5 7.0 0.00 0.00 0.00 36 1013.9
20260905134106 91 33 2.6 6.1 0.00 0.00 0.00 29 1014.0
20260905133022 92 34 2.6 5.2 0.00 0.00 0.00 28 1014.2
20260905132036 91 36 3.5 7.0 0.00 0.00 0.00 28 1014.1
20260905131028 91 59 3.5 6.1 0.00 0.00 0.00 29 1014.2
20260905130024 91 33 3.5 5.2 0.00 0.00 0.00 28 1014.2
20260905125535 92 71 3.5 7.0 0.00 0.00 0.00 27 1014.4
20260905125019 92 34 3.5 6.1 0.00 0.00 0.00 28 1014.4
20260905124529 91 32 1.7 3.5 0.00 0.00 0.00 28 1014.5
20260905123036 91 68 3.5 7.0 0.00 0.00 0.00 29 1014.7
20260905122028 91 79 3.5 6.1 0.00 0.00 0.00 29 1014.8
20260905121026 90 54 3.5 7.0 0.00 0.00 0.00 31 1014.9
20260905120021 89 43 4.3 7.8 0.00 0.00 0.00 31 1014.9
20260905115034 89 41 4.3 7.0 0.00 0.00 0.00 31 1015.1
20260905114030 89 42 4.3 7.0 0.00 0.00 0.00 30 1015.2
20260905113023 89 51 4.3 7.0 0.00 0.00 0.00 30 1015.2
20260905112018 89 31 4.3 6.1 0.00 0.00 0.00 30 1015.3
20260905111033 89 51 3.5 6.1 0.00 0.00 0.00 30 1015.4
20260905110026 88 35 3.5 7.8 0.00 0.00 0.00 32 1015.5
20260905105022 88 43 4.3 7.0 0.00 0.00 0.00 34 1015.5
20260905104017 88 59 3.5 6.1 0.00 0.00 0.00 35 1015.5
20260905103053 87 53 4.3 7.0 0.00 0.00 0.00 37 1015.7
20260905102028 88 49 3.5 7.0 0.00 0.00 0.00 37 1015.7
20260905101024 87 50 2.6 7.0 0.00 0.00 0.00 39 1015.8
20260905100020 86 47 4.3 7.0 0.00 0.00 0.00 41 1015.8
20260905095036 86 51 4.3 7.8 0.00 0.00 0.00 44 1015.9
20260905094031 86 54 2.6 6.1 0.00 0.00 0.00 43 1016.1
20260905093026 86 17 1.7 5.2 0.00 0.00 0.00 45 1016.1
20260905092021 88 297 1.7 5.2 0.00 0.00 0.00 34 1016.1
20260905091017 87 308 3.5 7.0 0.00 0.00 0.00 36 1016.1
20260905090032 86 321 3.5 7.0 0.00 0.00 0.00 37 1016.2
20260905085028 86 303 4.3 8.7 0.00 0.00 0.00 40 1016.2
20260905084023 86 298 5.2 8.7 0.00 0.00 0.00 41 1016.3
20260905074029 80 278 6.1 8.7 0.00 0.00 0.00 57 1016.3
20260905073519 79 293 5.2 11.3 0.00 0.00 0.00 57 1016.4
20260905072553 79 317 5.2 8.7 0.00 0.00 0.00 57 1016.4
20260905071528 79 300 6.1 11.3 0.00 0.00 0.00 58 1016.4
20260905070524 78 302 5.2 11.3 0.00 0.00 0.00 59 1016.4
20260905065519 79 313 4.3 9.6 0.00 0.00 0.00 58 1016.4